Flag for United Kingdom Weather past 2 weeks in Liverpool, England, United Kingdom

Now
57 °F

Scattered clouds.


Feels Like: 54 °F
Forecast: 56 / 60 °F
Wind: 15 mph from Northwest

Location: Liverpool Airport

Current Time: Sep 3, 2015 at 12:55:07 PM

Latest Report: Sep 3, 2015 at 12:20 PM


Visibility: N/A

Pressure: 30.01 "Hg

Humidity: 55%

Dew point: 41 °F

Location of LiverpoolLocation

Historic Weather in Liverpool — Graph

°F

Liverpool temperature yesterday

Maximum temperature yesterday: 59 °F (at 5:20 PM)
Minimum temperature yesterday: 52 °F (at 4:20 AM)
Average temperature yesterday: 55 °F

Past Weeks' High & Low Weather Summary

 TemperatureHumidityPressure
High77 °F (Aug 23, 12:20 PM)100% (Aug 19, 4:50 PM)30.12 "Hg (Aug 19, 4:50 PM)
Low52 °F (Aug 24, 5:20 AM)49% (Aug 27, 4:50 PM)29.42 "Hg (Aug 26, 4:50 AM)
Average60 °F83%29.86 "Hg
* Reported Aug 19 11:20 AM — Sep 3 11:50 AM, Liverpool, Weather by CustomWeather, © 2015

Note: Actual official high and low records may vary slightly from our data, if they occured in-between our weather recording intervals... More about our weather records

Advertising

Liverpool weather history for previous 24 hours

 ConditionsComfort  
Time TempWeatherWind HumidityBarometerVisibility
11:50 AM
Thu, Sep 3
57 °FScattered clouds.18 mph55%30.01 "HgN/A
11:20 AM59 °FScattered clouds.13 mph55%30.01 "HgN/A
10:50 AM55 °FScattered clouds.12 mph67%30.01 "HgN/A
10:20 AM55 °FScattered clouds.12 mph72%30.01 "HgN/A
9:50 AM55 °FScattered showers. Scattered clouds.6 mph82%30.01 "HgN/A
9:20 AM54 °FScattered showers. Scattered clouds.8 mph88%30.01 "HgN/A
8:50 AM54 °FScattered showers. Partly sunny.9 mph94%30.01 "HgN/A
8:20 AM54 °FSprinkles. Partly sunny.6 mph82%30.01 "HgN/A
7:50 AM54 °FPartly sunny.7 mph82%29.98 "HgN/A
7:20 AM52 °FPassing clouds.6 mph88%29.98 "HgN/A
6:50 AM54 °FPassing clouds.8 mph82%29.98 "HgN/A
6:20 AM54 °FPassing clouds.9 mph82%29.98 "HgN/A
5:50 AM52 °FPassing clouds.3 mph94%29.98 "HgN/A
5:20 AM54 °FPassing clouds.5 mph88%29.98 "HgN/A
4:20 AM54 °FPassing clouds.5 mph88%29.98 "HgN/A
3:50 AM54 °FPassing clouds.5 mph94%29.98 "HgN/A
3:20 AM54 °FPassing clouds.7 mph88%29.98 "HgN/A
2:50 AM54 °FPassing clouds.6 mph88%30.01 "HgN/A
2:20 AM54 °FPassing clouds.6 mph88%30.01 "HgN/A
1:50 AM55 °FPassing clouds.8 mph88%30.01 "HgN/A
1:20 AM55 °FPassing clouds.8 mph88%30.01 "HgN/A
12:50 AM54 °FSprinkles. Partly cloudy.5 mph94%30.01 "Hg5 mi
12:20 AM54 °FSprinkles. Partly cloudy.5 mph94%30.01 "Hg5 mi
11:50 PM
Wed, Sep 2
54 °FSprinkles. Passing clouds.13 mph88%30.01 "Hg6 mi
11:20 PM54 °FPassing clouds.7 mph82%30.01 "HgN/A
10:50 PM55 °FPassing clouds.9 mph77%30.04 "HgN/A
10:20 PM55 °FSprinkles. Passing clouds.12 mph77%30.04 "HgN/A
9:50 PM55 °FPassing clouds.13 mph72%30.04 "HgN/A
9:20 PM55 °FPassing clouds.14 mph72%30.04 "HgN/A
8:50 PM54 °FScattered clouds.12 mph77%30.04 "HgN/A
8:20 PM55 °FScattered showers. Scattered clouds.15 mph77%30.04 "HgN/A
7:50 PM55 °FScattered showers. Scattered clouds.14 mph77%30.04 "HgN/A
7:20 PM55 °FScattered showers. Scattered clouds.12 mph77%30.04 "HgN/A
6:50 PM55 °FRain showers. Scattered clouds.16 mph82%30.04 "HgN/A
6:20 PM57 °FScattered showers. Scattered clouds.15 mph77%30.04 "HgN/A
5:50 PM57 °FScattered showers. Scattered clouds.15 mph77%30.04 "HgN/A
5:20 PM59 °FScattered showers. Scattered clouds.18 mph72%30.04 "HgN/A
4:20 PM57 °FScattered showers. Broken clouds.17 mph88%30.04 "HgN/A
3:50 PM57 °FScattered showers. Broken clouds.12 mph88%30.04 "HgN/A
3:20 PM55 °FSprinkles. Partly sunny.7 mph88%30.07 "HgN/A
2:50 PM54 °FSleet. Broken clouds.13 mph94%30.07 "HgN/A
2:20 PM55 °FSprinkles. Scattered clouds.13 mph88%30.07 "HgN/A
1:50 PM57 °FSprinkles. Scattered clouds.16 mph82%30.07 "HgN/A
1:20 PM57 °FScattered showers. Scattered clouds.14 mph88%30.07 "HgN/A
12:50 PM57 °FPassing clouds.15 mph88%30.07 "HgN/A
12:20 PM57 °FScattered clouds.13 mph82%30.07 "HgN/A
Weather by CustomWeather, © 2015

See weather overviewHow to use our weather pages